Location: Newark
(41.1192°N, 81.5292°W)
Time: 18:57:59
(UTC+00:00)

N. Korean satellite - Pass Details

Date: 15 November 2019
Orbit: 456 x 506 km, 97.2° (Epoch: 07 December)

Event Time Altitude Azimuth Distance (km) Brightness Sun altitude
Rises 23:08:29 0° 192° (SSW) 2,533 10.6 -11.7°
Reaches altitude 10° 23:10:44 10° 205° (SSW) 1,668 9.8 -12.1°
Maximum altitude 23:13:50 27° 264° (W) 975 9.0 -12.7°
Drops below altitude 10° 23:17:00 10° 324° (NW) 1,704 9.6 -13.2°
Sets 23:19:20 0° 337° (NNW) 2,600 10.4 -13.7°
